Temperature
20 21 21 20 20 20 19 19 19 19 19 19 19 19 19 19 19 18 18 18 18 19 19 19 19 19 19 19 19 19 19 19 19 19 19 19 19 19 19 19 19 18 19
20 21 21 20 20 20 19 19 19 19 19 19 19 19 19 19 18 18 18 18 18 18 18 18 19 19 19 19 19 19 19 19 19 19 19 19 19 19 19 19 19 19 19
20 21 20 20 20 20 19 19 19 19 19 19 19 19 19 18 18 18 18 18 18 18 18 18 18 19 19 19 18 18 19 19 19 19 19 19 19 19 19 19 19 19 19
20 20 20 20 20 20 19 19 19 19 19 19 19 18 18 18 18 18 18 18 18 18 18 18 18 18 18 19 18 18 18 18 18 18 18 18 19 19 19 19 19 19 19
20 19 20 20 20 19 19 19 19 18 18 18 18 18 18 18 18 18 18 18 18 18 18 18 18 18 18 18 18 18 18 18 18 18 18 18 19 19 19 19 19 19 19
20 19 20 20 20 19 19 19 19 18 18 18 18 18 18 18 18 18 18 18 18 18 18 18 18 18 18 18 18 18 18 18 18 18 18 18 19 19 19 19 19 19 19
20 19 20 20 19 19 19 19 18 18 18 18 18 18 18 18 18 18 18 18 18 18 18 18 18 18 18 18 18 18 18 18 18 18 18 18 18 19 19 18 18 18 18
20 19 19 19 19 19 19 19 18 18 18 18 18 18 18 17 17 17 18 18 18 18 18 18 18 18 18 18 18 18 18 18 17 18 18 18 18 18 18 18 18 18 18
20 19 19 19 19 19 19 19 18 18 18 18 18 18 17 17 17 17 18 18 18 18 18 18 18 18 18 18 18 18 18 18 17 17 18 18 18 18 18 18 18 18 18
20 19 19 19 19 19 19 19 18 18 18 18 18 18 17 17 17 17 18 18 18 18 18 17 18 18 18 18 18 18 17 17 17 17 18 18 18 18 18 18 18 18 18
21 20 19 19 18 18 18 19 19 18 18 18 18 18 18 17 17 17 18 18 18 18 17 17 18 18 18 18 18 17 17 17 17 17 17 18 18 18 18 18 18 18 18
22 21 20 19 19 18 18 19 19 18 18 18 18 18 17 17 17 17 18 18 18 17 17 17 17 17 18 18 17 17 17 17 17 17 17 17 18 18 18 18 18 18 18
23 22 21 20 19 19 18 18 18 18 18 18 17 18 17 17 17 17 17 18 17 17 17 17 17 18 18 18 18 17 17 17 17 17 17 17 17 17 17 17 17 17 17
23 22 22 21 20 19 19 19 18 18 18 18 17 17 17 17 17 17 17 17 17 17 17 17 18 18 18 19 18 17 17 17 17 17 17 17 17 17 17 17 17 17 17
23 22 22 22 21 20 19 19 19 18 18 18 18 18 18 18 17 17 17 17 17 17 17 17 18 18 18 18 18 17 17 17 16 17 17 17 17 17 17 17 17 17 17
24 23 22 22 22 21 20 20 19 19 18 18 18 18 18 18 18 18 17 17 17 18 18 18 18 18 18 18 17 17 17 17 17 16 16 16 16 17 17 17 17 17 17
25 24 23 22 22 21 21 20 19 19 19 18 18 18 18 18 18 18 18 17 18 18 18 18 18 18 17 17 17 17 17 17 16 16 16 16 16 16 16 16 16 16 16
25 24 23 22 22 22 21 20 20 19 19 19 18 18 18 18 18 18 18 17 17 18 18 18 18 17 17 17 17 17 17 17 16 16 16 16 16 16 16 16 16 16 16
26 25 24 23 22 22 21 21 20 19 19 19 18 18 18 18 18 18 18 18 18 18 18 17 17 17 17 17 17 17 17 16 17 17 16 16 16 16 16 16 16 16 16
26 25 25 24 22 22 21 21 20 19 19 19 18 18 18 18 18 18 18 18 18 18 17 17 17 17 17 17 17 16 16 16 16 17 16 16 15 15 16 16 16 16 16
25 25 24 24 23 22 21 20 20 19 19 19 18 18 18 18 18 18 18 17 18 18 17 17 17 17 17 17 16 16 16 16 16 16 16 16 16 16 16 16 16 16 17
24 24 23 23 22 21 21 20 20 19 19 18 18 18 18 18 18 18 18 17 18 17 17 17 17 17 16 16 16 16 16 16 16 16 16 16 15 15 15 15 16 16 16
23 23 22 22 21 21 20 20 19 18 18 18 18 18 18 18 17 17 17 17 17 17 17 17 17 16 16 16 16 16 16 16 16 16 16 16 15 15 15 15 15 15 16
22 22 21 21 21 20 20 19 18 18 18 18 18 18 18 18 17 17 17 17 17 17 17 17 16 16 16 16 16 16 16 17 16 16 16 16 16 15 15 15 15 15 16
22 21 21 21 20 20 19 18 18 18 18 18 17 17 17 17 17 17 17 17 17 16 16 16 16 16 16 16 16 16 16 16 17 17 16 16 16 15 15 15 15 15 15
21 21 21 20 20 19 19 18 18 18 17 17 17 17 17 17 17 16 16 16 16 16 16 16 16 16 16 16 16 15 16 16 16 17 17 16 16 16 15 15 15 15 15
Wind_Speed
12 14 16 14 13 11 10 9 9 9 9 10 10 10 9 10 10 11 10 10 10 10 10 10 11 11 10 9 9 9 10 10 9 9 8 8 8 7 6 6 5 8 8
16 17 16 15 13 11 10 9 8 9 9 10 10 9 9 10 11 10 10 9 9 9 10 11 12 12 11 10 9 9 9 8 7 6 7 7 7 7 7 7 9 8 8
17 17 15 14 13 11 10 9 8 8 9 9 9 9 9 10 10 10 10 9 9 9 11 12 13 13 13 13 11 10 8 6 4 2 3 5 8 7 7 8 9 9 8
17 16 15 14 12 11 10 9 9 9 8 8 8 9 9 10 10 10 10 9 9 9 11 12 13 13 14 13 12 10 8 5 3 3 0 4 6 8 7 7 7 8 8
15 15 17 15 12 11 10 9 9 9 8 8 9 9 10 10 10 10 9 9 8 9 10 11 12 13 13 13 12 10 8 7 6 6 9 10 9 8 8 7 7 7 7
14 15 17 14 12 11 10 9 9 9 9 9 10 10 11 11 10 10 9 8 8 8 9 10 11 12 12 12 11 10 9 10 8 11 11 10 9 8 8 7 6 6 7
14 15 15 14 12 10 9 9 9 9 10 10 11 11 12 11 11 10 9 8 7 7 8 9 10 11 11 10 9 8 9 11 4 11 12 11 9 9 8 7 6 6 7
13 13 14 13 11 10 9 9 9 10 11 12 12 12 12 12 11 10 9 8 7 7 7 8 9 10 9 8 7 6 8 10 5 12 13 12 11 10 9 8 8 8 8
13 13 13 13 11 10 10 9 10 11 12 12 12 12 12 12 12 11 9 8 7 7 7 8 9 8 7 5 3 4 7 11 8 9 12 11 11 11 10 10 9 9 8
13 12 12 13 13 12 11 10 11 11 12 13 12 13 13 12 12 11 10 8 8 8 8 8 7 6 5 3 1 2 6 10 6 13 11 10 10 10 10 10 10 9 9
12 12 12 12 11 12 13 12 12 12 12 12 11 13 13 12 12 10 11 9 8 8 7 6 6 6 5 4 4 3 6 1 12 12 10 9 9 9 9 9 9 9 9
11 13 13 13 11 10 11 12 11 11 11 11 12 12 12 12 11 13 13 10 8 8 7 7 7 6 7 7 7 5 2 8 12 11 9 8 8 8 9 9 8 8 8
10 11 14 14 12 10 8 8 7 8 9 10 12 14 12 9 12 12 9 8 8 8 8 7 8 9 8 4 4 5 7 10 10 11 10 9 8 9 9 9 8 8 8
10 8 11 13 14 12 10 7 7 5 6 5 9 12 8 4 5 7 6 9 9 9 7 7 5 2 1 3 5 8 9 9 10 11 10 11 11 11 11 11 10 10 9
13 10 9 10 13 13 11 8 8 7 6 7 7 8 8 4 5 5 4 6 7 7 4 3 1 1 3 7 7 7 8 10 11 11 11 13 13 12 12 12 12 12 12
14 13 10 10 11 12 11 9 8 6 5 7 6 7 9 6 3 5 4 4 3 5 6 3 3 1 5 5 5 4 6 10 11 12 12 14 16 15 14 14 14 14 13
14 15 13 11 10 11 12 10 8 6 7 5 6 9 10 8 5 4 4 5 3 5 5 3 4 3 5 4 2 4 4 5 10 11 12 12 14 16 16 16 16 16 15
13 14 14 12 11 10 9 9 7 6 6 5 7 7 9 10 9 5 5 6 5 5 3 4 3 3 4 3 3 3 3 3 4 9 12 11 12 12 14 16 17 17 16
10 10 13 13 11 9 8 8 6 5 6 4 5 5 6 8 9 5 5 4 6 4 4 5 4 3 4 3 4 2 3 3 1 4 7 10 11 13 12 14 16 16 16
7 7 8 11 11 9 8 7 5 4 5 3 3 4 7 6 8 5 5 5 5 5 4 4 5 4 4 3 3 3 2 1 3 5 5 6 8 11 12 12 12 14 15
4 3 4 6 7 7 6 6 5 4 4 4 4 5 6 6 7 5 6 6 4 5 6 5 4 5 3 2 3 3 1 1 5 2 3 4 4 6 8 9 10 12 12
6 4 3 5 5 6 5 5 5 5 4 5 5 5 6 6 6 4 7 5 3 5 6 5 5 4 2 2 3 3 1 1 1 3 3 4 6 4 6 9 8 10 12
8 6 4 4 7 6 6 4 4 3 2 4 5 5 6 6 6 5 6 6 5 5 5 5 5 5 3 2 2 3 4 4 3 2 5 3 5 4 2 5 9 12 14
9 7 6 6 7 6 5 4 5 5 5 6 6 6 6 6 6 6 6 6 6 6 7 7 6 5 5 4 3 4 4 4 4 3 3 4 6 5 4 2 3 10 15
10 7 7 8 7 6 5 5 4 5 5 5 5 7 7 7 7 7 7 7 7 7 8 8 7 7 6 5 5 4 5 2 4 4 4 4 4 4 5 5 3 7 11
9 7 7 7 7 5 5 6 7 6 4 3 3 4 4 4 4 7 7 7 7 6 8 8 8 9 8 7 6 6 5 3 3 2 3 5 5 5 5 5 4 5 8
Wind_Direction
130 133 141 141 139 135 129 121 115 112 110 109 109 109 108 107 103 99 93 84 75 69 66 64 64 66 69 74 78 82 83 85 88 95 101 96 91 85 76 56 34 88 83
130 132 141 141 141 140 138 134 127 123 119 117 115 113 112 111 109 105 98 88 78 72 68 65 66 65 66 71 78 81 80 81 88 104 116 111 98 88 77 60 58 74 75
127 133 142 142 143 144 145 145 141 134 130 127 123 119 118 117 116 110 102 91 83 75 71 68 67 65 65 68 70 72 70 65 67 99 146 129 115 96 82 70 69 72 73
130 139 143 144 146 147 150 153 152 147 143 139 133 128 126 123 119 113 106 96 87 78 73 70 68 67 66 66 65 64 60 45 5 337 51 129 116 101 90 78 73 75 76
130 136 135 146 147 148 153 156 157 156 153 149 142 136 130 126 121 115 108 100 90 82 76 73 71 69 67 64 59 52 41 21 357 38 75 96 98 106 98 92 82 82 85
129 130 137 146 148 150 153 158 161 161 158 153 146 139 132 128 124 118 111 102 93 87 81 77 76 73 67 61 52 37 18 8 35 64 68 87 96 102 103 102 95 91 93
131 130 140 146 150 151 154 158 161 160 157 152 145 138 133 131 127 121 112 104 98 92 85 82 83 79 70 59 45 21 357 345 71 83 77 77 85 95 100 101 101 98 101
132 133 137 146 150 153 155 157 159 156 152 146 142 137 135 133 129 122 114 109 104 96 89 89 89 82 72 60 41 7 342 338 64 97 85 75 79 87 92 95 98 100 108
136 139 145 152 155 157 156 157 157 153 149 145 141 138 137 134 129 125 120 117 111 104 100 100 99 93 84 73 43 345 332 334 337 103 88 74 76 82 85 87 91 95 103
148 150 155 155 158 159 157 157 154 152 149 146 144 141 139 137 137 138 130 127 122 115 112 115 120 121 118 122 166 301 313 312 44 78 81 78 75 79 82 82 85 90 97
156 155 155 155 158 156 155 151 152 152 151 149 149 150 151 157 156 157 128 134 129 126 130 148 164 160 162 185 209 243 291 295 85 79 70 78 80 82 83 82 83 87 92
160 160 157 156 155 156 149 145 155 157 158 171 164 168 188 183 159 134 134 139 141 149 165 194 210 206 203 210 209 219 266 73 83 84 68 77 86 87 86 85 87 89 92
164 158 158 158 155 144 135 150 155 159 173 192 176 180 201 160 129 131 151 153 167 178 197 200 231 233 207 197 164 125 70 72 76 77 69 73 84 89 88 86 87 91 93
154 155 156 154 150 152 150 153 159 167 178 190 195 188 179 160 158 158 166 179 180 197 200 198 227 239 192 168 129 109 87 82 83 83 74 75 78 83 85 85 84 84 86
152 159 160 157 156 158 152 157 170 171 178 180 183 194 169 168 174 161 173 172 196 177 177 221 193 43 44 42 56 86 96 93 92 86 80 81 82 83 86 86 84 82 80
158 162 164 171 160 159 157 171 170 172 171 165 171 189 181 179 187 162 179 164 201 170 180 181 136 115 71 58 43 61 104 113 112 111 100 86 83 83 85 86 84 81 80
163 166 167 175 171 168 165 172 164 167 167 163 171 194 190 186 196 162 180 165 204 186 175 159 124 102 106 123 103 73 66 111 134 131 123 109 91 82 84 85 82 79 77
164 167 169 175 177 174 165 164 163 170 161 159 167 196 196 190 202 170 181 171 196 183 154 119 122 112 112 123 99 81 83 41 111 141 139 132 117 98 87 87 84 79 74
159 165 169 172 174 174 162 155 160 165 149 153 163 182 203 198 206 174 178 181 187 163 149 152 155 138 134 107 92 53 89 92 356 110 124 122 124 124 114 99 91 83 77
151 168 171 168 170 168 156 153 146 147 144 147 155 176 199 206 211 179 159 204 185 153 151 156 144 122 117 134 143 100 64 117 75 45 75 103 117 129 139 133 113 92 82
155 170 159 148 157 152 147 151 151 165 163 164 178 193 202 212 214 180 169 202 192 153 154 157 131 126 126 148 91 74 356 338 107 144 124 105 102 126 135 134 135 125 97
139 121 120 136 143 143 145 153 163 169 184 190 190 203 206 214 220 194 176 180 168 140 148 148 123 135 157 160 130 138 193 309 309 171 116 141 162 163 147 138 132 127 117
116 109 85 90 109 106 119 124 143 149 187 200 199 207 211 208 216 202 194 179 172 153 155 155 144 148 173 224 166 160 177 197 200 194 188 188 141 141 167 151 149 128 113
116 115 126 112 111 115 127 147 163 176 195 207 202 203 211 211 212 204 201 190 179 163 163 173 166 157 162 208 251 237 216 170 165 186 207 183 161 174 148 117 109 116 121
122 131 123 116 120 135 156 159 184 199 210 219 206 196 203 210 211 203 202 200 192 173 174 176 172 168 173 189 221 252 261 230 205 150 183 192 173 176 164 170 140 119 129
119 121 118 123 118 133 158 177 197 200 202 207 186 187 196 196 207 211 208 203 199 186 183 183 182 181 186 191 209 232 241 230 234 164 170 182 181 192 166 155 147 137 136
Height
1498 1499 1501 1503 1505 1507 1509 1510 1512 1513 1514 1515 1516 1517 1518 1519 1520 1520 1521 1522 1523 1523 1523 1524 1524 1524 1525 1525 1526 1527 1529 1530 1531 1532 1533 1534 1534 1535 1535 1535 1535 1535 1535
1497 1499 1502 1504 1505 1507 1509 1511 1512 1514 1515 1516 1517 1518 1519 1520 1521 1521 1522 1523 1524 1524 1524 1525 1525 1525 1526 1526 1527 1528 1529 1530 1532 1533 1534 1534 1535 1535 1536 1536 1536 1536 1536
1498 1500 1502 1504 1506 1508 1510 1511 1513 1514 1516 1517 1518 1519 1520 1521 1522 1522 1523 1524 1525 1525 1525 1526 1526 1526 1527 1527 1528 1529 1530 1531 1533 1534 1535 1535 1536 1536 1536 1536 1537 1536 1537
1498 1500 1503 1505 1506 1508 1510 1512 1513 1515 1516 1518 1519 1520 1521 1522 1522 1523 1524 1525 1526 1526 1526 1527 1527 1527 1527 1528 1528 1529 1531 1532 1534 1534 1535 1535 1536 1537 1537 1537 1537 1537 1537
1500 1501 1503 1505 1507 1508 1510 1512 1513 1515 1517 1518 1520 1521 1522 1523 1523 1524 1525 1526 1526 1527 1527 1528 1528 1528 1529 1529 1530 1531 1532 1533 1534 1535 1535 1535 1536 1537 1537 1538 1538 1538 1538
1501 1502 1503 1505 1507 1509 1510 1512 1514 1515 1517 1518 1520 1521 1522 1524 1525 1525 1526 1527 1527 1528 1528 1529 1529 1530 1530 1531 1532 1532 1533 1534 1535 1535 1536 1536 1536 1537 1537 1538 1538 1539 1539
1502 1503 1504 1506 1507 1509 1510 1512 1514 1516 1517 1519 1520 1522 1523 1524 1526 1526 1527 1528 1528 1529 1529 1530 1530 1531 1531 1532 1533 1534 1535 1536 1536 1536 1536 1536 1536 1537 1537 1538 1538 1539 1539
1503 1504 1504 1506 1507 1509 1511 1513 1514 1516 1518 1520 1521 1523 1524 1525 1526 1527 1528 1529 1529 1530 1530 1531 1532 1532 1533 1533 1534 1535 1536 1537 1538 1537 1537 1537 1537 1537 1538 1538 1539 1539 1540
1504 1505 1505 1507 1508 1510 1511 1513 1515 1517 1519 1520 1522 1523 1525 1526 1527 1528 1529 1529 1530 1531 1531 1532 1533 1533 1534 1535 1535 1536 1537 1538 1538 1538 1538 1538 1538 1538 1538 1539 1539 1540 1540
1504 1505 1506 1507 1509 1510 1512 1514 1515 1517 1519 1521 1522 1524 1525 1527 1528 1529 1529 1530 1531 1532 1532 1533 1534 1535 1535 1536 1536 1537 1538 1539 1539 1538 1538 1539 1538 1539 1539 1539 1540 1540 1541
1504 1505 1507 1508 1510 1512 1513 1514 1516 1518 1519 1521 1523 1524 1526 1527 1529 1529 1530 1531 1532 1533 1534 1535 1536 1536 1537 1537 1538 1539 1539 1540 1539 1539 1539 1539 1539 1539 1539 1539 1540 1540 1541
1504 1506 1507 1508 1510 1513 1514 1514 1516 1518 1520 1522 1523 1525 1526 1528 1530 1530 1531 1532 1533 1534 1536 1537 1537 1537 1538 1538 1539 1540 1540 1541 1539 1539 1539 1539 1539 1539 1539 1539 1540 1540 1541
1504 1506 1507 1508 1510 1513 1514 1515 1516 1518 1520 1522 1524 1526 1527 1530 1530 1531 1532 1533 1534 1536 1537 1538 1538 1538 1539 1540 1541 1540 1541 1541 1540 1539 1539 1539 1539 1539 1539 1540 1540 1540 1541
1503 1506 1508 1509 1510 1512 1513 1515 1516 1518 1520 1522 1524 1526 1528 1530 1531 1531 1532 1533 1535 1536 1538 1539 1540 1541 1541 1542 1542 1541 1541 1541 1540 1540 1539 1539 1540 1540 1540 1540 1540 1541 1541
1502 1505 1507 1509 1510 1512 1513 1514 1516 1518 1519 1522 1524 1526 1528 1529 1531 1532 1533 1535 1536 1538 1539 1540 1542 1542 1542 1542 1542 1542 1541 1541 1541 1540 1540 1540 1540 1540 1540 1540 1541 1541 1542
1499 1502 1505 1508 1509 1511 1512 1513 1515 1517 1519 1521 1522 1524 1526 1528 1530 1531 1533 1534 1536 1538 1539 1541 1542 1543 1542 1542 1543 1543 1543 1542 1542 1541 1541 1541 1541 1541 1541 1541 1541 1542 1542
1496 1499 1502 1505 1508 1509 1511 1512 1514 1515 1517 1519 1520 1522 1524 1526 1528 1530 1532 1533 1535 1537 1539 1540 1542 1543 1543 1543 1544 1544 1544 1544 1543 1543 1542 1542 1542 1542 1542 1542 1542 1542 1543
1493 1496 1499 1502 1505 1507 1509 1510 1512 1514 1515 1517 1518 1520 1523 1525 1527 1528 1530 1532 1534 1536 1538 1539 1541 1542 1543 1544 1545 1545 1545 1545 1545 1545 1544 1544 1543 1543 1543 1543 1543 1543 1543
1491 1494 1496 1498 1501 1504 1507 1508 1510 1512 1513 1514 1515 1517 1519 1522 1524 1526 1528 1530 1532 1534 1536 1538 1540 1541 1543 1544 1545 1546 1546 1546 1546 1547 1546 1545 1545 1544 1544 1544 1544 1544 1544
1489 1492 1495 1496 1498 1501 1504 1505 1507 1509 1510 1511 1512 1514 1516 1519 1521 1524 1526 1528 1531 1532 1534 1536 1538 1540 1542 1543 1545 1546 1546 1547 1547 1547 1547 1547 1546 1545 1545 1545 1545 1545 1545
1487 1490 1492 1494 1496 1498 1499 1501 1504 1506 1507 1509 1510 1511 1513 1515 1518 1521 1522 1525 1528 1529 1531 1533 1536 1537 1540 1542 1544 1545 1546 1547 1546 1547 1548 1547 1547 1546 1546 1546 1545 1545 1545
1484 1487 1490 1492 1494 1495 1496 1498 1500 1503 1505 1506 1507 1509 1510 1512 1515 1517 1519 1522 1524 1526 1528 1530 1532 1534 1537 1539 1541 1543 1545 1547 1546 1547 1547 1548 1547 1547 1547 1547 1547 1546 1545
1482 1485 1487 1489 1491 1492 1493 1495 1497 1499 1501 1503 1504 1506 1507 1509 1511 1513 1516 1518 1520 1522 1524 1527 1529 1531 1534 1536 1539 1541 1542 1543 1544 1546 1546 1547 1547 1548 1548 1548 1547 1546 1546
1480 1483 1485 1487 1488 1489 1491 1492 1494 1496 1498 1500 1501 1503 1504 1506 1508 1509 1511 1514 1516 1518 1520 1523 1525 1527 1530 1532 1535 1537 1539 1540 1541 1543 1545 1546 1546 1547 1548 1548 1548 1547 1546
1478 1482 1484 1485 1486 1487 1489 1490 1492 1494 1496 1498 1499 1500 1501 1503 1504 1505 1507 1509 1511 1513 1515 1518 1521 1523 1525 1528 1531 1533 1535 1537 1538 1540 1541 1544 1545 1546 1546 1547 1547 1546 1545
1477 1480 1482 1484 1485 1486 1488 1489 1490 1493 1494 1496 1496 1498 1499 1499 1500 1501 1503 1504 1506 1508 1510 1513 1515 1518 1520 1523 1526 1529 1531 1533 1535 1537 1538 1540 1542 1543 1544 1545 1545 1545 1544